Regional Weather Roundup
Issued by NWS Sioux Falls, SD

Home | Current Version | Previous Version | Text Only | Print | Product List | Glossary Off
Versions: 1 2 3 4 5 6 7 8 9 10 11 12 13 14 15 16 17 18 19 20 21 22 23 24 25 26 27 28 29 30 31 32 33 34 35 36 37 38 39 40 41 42 43 44 45 46 47 48 49 50

000
ASUS43 KFSD 221402
RWRFSD

WEATHER ROUNDUP FOR SE SOUTH DAKOTA/SW MINNESOTA/NW IOWA
NATIONAL WEATHER SERVICE SIOUX FALLS SD
900 AM CDT TUE JUL 22 2014

NOTE: "FAIR" INDICATES FEW OR NO CLOUDS BELOW 12,000 FEET WITH NO
SIGNIFICANT WEATHER AND OR OBSTRUCTIONS TO VISIBILITY.


SDZ038>040-050-052>070-221500-
SOUTHEAST SOUTH DAKOTA

CITY           SKY/WX    TMP DP  RH WIND       PRES   REMARKS
CHAMBERLAIN    CLOUDY    66  64  91 W6        30.15R
HURON          PTSUNNY   68  63  84 N14       30.08R
MADISON        FAIR      70  68  94 N13G18    30.06R
MITCHELL       PTSUNNY   72  66  81 N10G20    30.09R
SIOUX FALLS    MOSUNNY   74  65  73 N13       30.03R
WINNER         TSTM      67  64  90 N16       30.16R
YANKTON        PTSUNNY   72  64  78 NW13      30.05R
$$

MNZ071-072-080-081-089-090-097-098-221500-
SOUTHWEST MINNESOTA

CITY           SKY/WX    TMP DP  RH WIND       PRES   REMARKS
FAIRMONT       MOSUNNY   73  63  68 N8        29.97F
LUVERNE        MOSUNNY   73  63  68 N10G24    30.01R
MARSHALL       PTSUNNY   70  63  78 N17G24    30.00S
MONTEVIDEO     CLOUDY    70  64  83 N13G21    30.02S
PIPESTONE      MOSUNNY   72  63  73 NE16      30.03R
REDWOOD FALLS  CLOUDY    71  64  78 NW10G18   30.00R
TRACY          CLOUDY    70  65  83 N9        30.02R
WINDOM         PTSUNNY   70  64  83 N17       30.01S
WORTHINGTON    PTSUNNY   70  64  83 N16G22    30.03R
$$

IAZ001>003-012>014-020>022-031-032-NEZ013-014-SDZ071-221500-
NORTHWEST IOWA

CITY           SKY/WX    TMP DP  RH WIND       PRES   REMARKS
CHEROKEE       SUNNY     76  65  70 NE10      29.94F
DENISON        PTSUNNY   81  73  78 NE14      29.98F
ESTHERVILLE    MOSUNNY   74  64  71 NE13      29.96F
LE MARS        SUNNY     77  66  69 NE8       29.97R
ORANGE CITY    MOSUNNY   75  63  64 E7        29.97R
SHELDON        MOSUNNY   75  64  69 NE15G21   29.97R
SIOUX CITY     MOSUNNY   81  66  60 E5        29.97R
SPENCER        MOSUNNY   75  64  68 NE12      29.95F
STORM LAKE     SUNNY     75  68  78 NE14G21   29.98F
$$

ABBREVIATIONS USED IN REMARKS
   TC - TEMPERATURE IN CELSIUS
  WCI - WIND CHILL INDEX
   HX - HEAT INDEX
  VSB - VISIBILITY



USA.gov is the U.S. government's official web portal to all federal, state and local government web resources and services.